Location: Ayer Observatory
(42.2600°N, 71.0700°W)
Time: 13:58:16
(UTC-05:00)

Tiangong 2 - Visible Passes

Search period start: 18 February 2019 00:00
Search period end: 28 February 2019 00:00
Orbit: 381 x 390 km, 42.8° (Epoch: 18 February)

Date Brightness Start Highest point End Pass type
(mag) Time Alt. Az. Time Alt. Az. Time Alt. Az.
18 Feb 1.5 18:11:49 10° W 18:14:56 60° SSW 18:17:30 14° ESE visible
18 Feb 4.4 19:49:22 10° WSW 19:49:46 12° WSW 19:49:46 12° WSW visible
19 Feb 3.0 18:49:35 10° W 18:52:15 25° SSW 18:53:39 18° SSE visible
20 Feb 2.3 17:50:09 10° W 17:53:08 39° SSW 17:56:07 10° SE visible
21 Feb 3.9 18:28:24 10° WSW 18:30:18 15° SSW 18:32:13 10° S visible
